Location: Street
(51.1247°N, 2.7429°W)
Time: 10:47:50
(UTC+00:00)

Tiros 1 - Pass Details

Date: 04 December 2020
Orbit: 630 x 663 km, 48.4° (Epoch: 21 January)

Event Time Altitude Azimuth Distance (km) Brightness Sun altitude
Rises 12:14:41 0° 186° (S) 2,979 12.4 16.5°
Reaches altitude 10° 12:18:52 10° 151° (SSE) 2,076 10.9 16.4°
Maximum altitude 12:20:07 11° 136° (SE) 2,015 10.4 16.4°
Drops below altitude 10° 12:21:22 10° 120° (ESE) 2,079 10.2 16.4°
Sets 12:25:34 0° 85° (E) 2,996 10.5 16.3°
